[[{"header":{"parameterUnit":"m.s-1","parameterCategory":1,"la1":30.2991,"la2":30.254,"lo1":-89.0895,"lo2":-89.0444,"dy":0.0017,"dx":0.0017,"nx":28,"ny":28,"refTime":"2024-03-17T09:00:00:Z","depth":0,"parameterNumber":2,"parameterNumberName":"U-component_of_WINDS"},"data":[0,0,0,0,0,0,0,0,0,0,0,0,0,0,0,0,0,0,0,0,0,0,0,0,0,0,0,0,0,0,0,0,0,0,0,0,0,0,0,0,0,0,0,0,0,0,0,0,0,0,0,0,0,0,0,0,0,0,3.1016,3.1016,0,3.1056,3.1057,3.1057,3.1052,3.1051,3.1051,3.105,3.109,3.1091,3.1093,0,0,0,0,0,0,0,0,0,0,0,0,0,3.0933,3.0935,3.1016,3.1016,3.1017,3.1056,3.1057,3.1057,3.1052,3.1051,3.105,3.105,3.1089,3.1091,3.1093,0,0,0,0,0,0,0,0,0,0,0,0,0,3.0971,3.0935,3.1016,3.1019,3.102,3.1056,3.1057,3.1057,3.1052,3.1051,3.105,3.1049,3.1089,3.1091,3.1093,3.1129,0,0,3.1101,3.1102,0,0,0,0,0,0,0,0,3.0969,3.0974,3.1018,3.1019,3.102,3.1048,3.1042,3.1081,3.1052,3.104,3.105,3.1049,3.1077,3.108,3.109,3.1131,3.1132,3.1101,3.1103,3.1104,3.1105,0,0,0,0,0,0,0,3.0966,3.0972,3.1032,3.1019,3.102,3.1018,3.1022,3.105,3.1063,3.1041,3.104,3.1045,3.1077,3.1087,3.1091,3.1133,3.1101,3.1104,3.1105,3.1106,3.1206,3.1207,0,0,0,0,0,0,3.0963,3.097,3.103,3.1033,3.0991,3.102,3.1025,3.104,3.1063,3.1065,3.1046,3.1045,3.1084,3.1088,3.1092,3.1135,3.1104,3.1106,3.1108,3.1205,3.1206,3.1208,0,0,0,0,0,0,3.0961,3.0968,3.1029,3.1001,3.1009,3.1023,3.1039,3.1041,3.1052,3.1067,3.1069,3.1055,3.1083,3.1088,3.112,3.1137,3.1107,3.111,3.1204,3.1205,3.1207,3.1222,0,0,0,0,0,0,3.0959,3.0968,3.0981,3.1002,3.1011,3.1056,3.104,3.1043,3.1056,3.1055,3.1075,3.1078,3.1083,3.1116,3.1123,3.114,3.1112,3.1202,3.1204,3.1206,3.122,3.1224,3.1228,0,0,0,0,0,3.0956,3.0983,3.0982,3.0989,3.1028,3.1057,3.1062,3.1068,3.1058,3.1071,3.1082,3.1077,3.1134,3.112,3.1127,3.1145,3.1201,3.1204,3.1206,3.1219,3.1223,3.1227,0,0,0,0,0,0,3.0963,3.0986,3.0985,3.102,3.1037,3.1056,3.1074,3.1072,3.1092,3.109,3.1096,3.11,3.1132,3.1142,3.1125,3.1181,3.1166,3.117,3.1173,3.1178,3.1182,3.1178,3.1114,0,0,0,0,0,3.0969,3.0991,3.101,3.1039,3.1048,3.1059,3.1072,3.1075,3.1093,3.11,3.1112,3.1129,3.1151,3.1165,3.1186,3.1222,3.1226,3.1238,3.1242,3.1245,3.1248,3.1268,3.1274,3.1216,3.1216,3.1216,0,0,3.0981,3.0996,3.101,3.1041,3.1054,3.1077,3.1065,3.109,3.1107,3.1103,3.1134,3.1144,3.1163,3.1198,3.1213,3.1206,3.1265,3.1248,3.125,3.1252,3.1272,3.1277,3.1282,3.1218,3.1218,3.1217,0,0,3.1014,3.1028,3.1054,3.1069,3.109,3.1098,3.1104,3.1124,3.1131,3.1162,3.1161,3.1181,3.1218,3.1232,3.1244,3.1285,3.1282,3.1292,3.1311,3.1331,3.1335,3.1339,3.1354,3.1359,3.1295,3.1295,3.1295,0,3.1026,3.1061,3.1068,3.1093,3.1107,3.1106,3.1133,3.1146,3.1173,3.1182,3.1175,3.1222,3.1235,3.1273,3.1283,3.1293,3.1301,3.1289,3.1334,3.1338,3.1342,3.1356,3.1362,3.1296,3.1296,3.1296,3.1296,0,3.1075,3.11,3.1118,3.1145,3.1161,3.1187,3.1197,3.1213,3.1215,3.1224,3.1256,3.1272,3.1296,3.1306,3.1307,3.1344,3.134,3.1333,3.1318,3.1349,3.1362,3.1368,3.1298,3.1298,3.1297,3.1297,0,0,3.1113,3.1145,3.1151,3.1164,3.1188,3.1207,3.1233,3.1258,3.1271,3.129,3.1312,3.1345,3.1339,3.1353,3.1357,3.1374,3.1406,3.1366,3.1366,3.1373,3.1448,3.1453,3.1459,3.1405,3.1406,3.1407,3.1447,0,3.1149,3.1195,3.1203,3.1244,3.1267,3.1267,3.129,3.1307,3.1317,3.1337,3.1347,3.137,3.1362,3.137,3.1388,3.1398,3.1421,3.1396,3.1425,3.1426,3.142,3.1466,3.147,3.1507,3.1452,3.1453,3.1453,0,3.1196,3.1218,3.1261,3.1283,3.1293,3.1314,3.1338,3.1358,3.1377,3.1383,3.1399,3.1401,3.1429,3.1414,3.1452,3.1434,3.1447,3.1454,3.1456,3.1458,3.1441,3.1469,3.1519,3.1524,3.1462,3.1461,3.146,0,3.122,3.1259,3.1291,3.1302,3.1328,3.1343,3.1354,3.1373,3.1388,3.1409,3.1419,3.1443,3.1455,3.1474,3.1482,3.1471,3.152,3.1505,3.1525,3.1525,3.1534,3.1534,3.1587,3.1543,3.1543,3.1543,3.1543,0,3.1259,3.1285,3.1302,3.1321,3.1351,3.136,3.1389,3.14,3.1418,3.1439,3.1441,3.1461,3.1471,3.1493,3.1499,3.153,3.1536,3.1541,3.1542,3.1541,3.154,3.1548,3.1546,3.1545,3.1544,3.1544,3.1544,0,3.1289,3.1302,3.1336,3.1359,3.1365,3.1386,3.1406,3.1425,3.1435,3.1462,3.1469,3.1484,3.151,3.152,3.1552,3.1556,3.1591,3.1591,3.1585,3.1585,3.1604,3.1602,3.1664,3.1672,3.1624,3.1624,3.1625,0,3.1313,3.1334,3.136,3.1375,3.1387,3.1411,3.1427,3.1436,3.1452,3.1478,3.1493,3.1519,3.1541,3.1582,3.1595,3.162,3.162,3.164,3.1623,3.1621,3.162,3.1618,3.162,3.1642,3.1643,3.1643,3.1644,0,3.1354,3.136,3.1382,3.1408,3.1427,3.1447,3.1466,3.1478,3.1491,3.1509,3.1536,3.1553,3.1585,3.1611,3.1637,3.1648,3.1648,3.1649,3.1655,3.1653,3.1648,3.1651,3.1593,3.1647,3.1647,3.1647,3.1646,3.1646,3.1382,3.1401,3.1423,3.1448,3.1464,3.1483,3.1502,3.1515,3.1538,3.1565,3.157,3.1599,3.1619,3.1653,3.1666,3.1689,3.1684,3.1692,3.1694,3.1696,3.1697,3.1646,3.1694,3.1693,3.1693,3.1693,3.1693,0,3.1423,3.1438,3.1461,3.1489,3.1509,3.1509,3.1531,3.1548,3.1573,3.1593,3.1614,3.1645,3.1671,3.1687,3.1713,3.1728,3.1729,3.1734,3.1733,3.1736,3.17,3.1693,3.1733,3.1733,3.1733,3.1733,3.1733,3.1733,3.1447,3.1479,3.1487,3.1527,3.1541,3.157,3.1583,3.16,3.1616,3.1651,3.1673,3.1683,3.1702,3.1729,3.1753,3.1757,3.1766,3.1772,3.1776,3.1742,3.1738,3.1734,3.1727,3.1774,3.1774,3.181,3.181,3.181]},{"header":{"parameterUnit":"m.s-1","parameterCategory":1,"la1":30.2991,"la2":30.254,"lo1":-89.0895,"lo2":-89.0444,"dy":0.0017,"dx":0.0017,"nx":28,"ny":28,"refTime":"2024-03-17T09:00:00:Z","depth":0,"parameterNumber":3,"parameterNumberName":"V-component_of_WINDS"},"data":[0,0,0,0,0,0,0,0,0,0,0,0,0,0,0,0,0,0,0,0,0,0,0,0,0,0,0,0,0,0,0,0,0,0,0,0,0,0,0,0,0,0,0,0,0,0,0,0,0,0,0,0,0,0,0,0,0,0,-6.5526,-6.5527,0,-6.5573,-6.5573,-6.5574,-6.5541,-6.5539,-6.5538,-6.5536,-6.5579,-6.5582,-6.5584,0,0,0,0,0,0,0,0,0,0,0,0,0,-6.5407,-6.5409,-6.5526,-6.5527,-6.5528,-6.5573,-6.5573,-6.5574,-6.5541,-6.5539,-6.5537,-6.5536,-6.5578,-6.5581,-6.5584,0,0,0,0,0,0,0,0,0,0,0,0,0,-6.5456,-6.541,-6.5526,-6.5517,-6.5516,-6.5572,-6.5573,-6.5574,-6.5541,-6.5539,-6.5537,-6.5535,-6.5577,-6.5581,-6.5585,-6.5651,0,0,-6.5596,-6.5598,0,0,0,0,0,0,0,0,-6.5453,-6.5461,-6.5518,-6.5517,-6.5517,-6.5549,-6.5547,-6.56,-6.5542,-6.5532,-6.5536,-6.5534,-6.5571,-6.5575,-6.5588,-6.5653,-6.5655,-6.5596,-6.5599,-6.56,-6.5601,0,0,0,0,0,0,0,-6.545,-6.5458,-6.5544,-6.5518,-6.5518,-6.5509,-6.5514,-6.5557,-6.5563,-6.5532,-6.553,-6.5536,-6.557,-6.5584,-6.5589,-6.5656,-6.5596,-6.56,-6.5602,-6.5603,-6.578,-6.5782,0,0,0,0,0,0,-6.5448,-6.5456,-6.5543,-6.5546,-6.5479,-6.5513,-6.5518,-6.5541,-6.5562,-6.5563,-6.5538,-6.5535,-6.5579,-6.5584,-6.559,-6.5671,-6.56,-6.5604,-6.5606,-6.5777,-6.578,-6.5783,0,0,0,0,0,0,-6.5446,-6.5456,-6.5541,-6.55,-6.5511,-6.5517,-6.5543,-6.5543,-6.5557,-6.5567,-6.5567,-6.5552,-6.5578,-6.5585,-6.5637,-6.5672,-6.5606,-6.5609,-6.5775,-6.5778,-6.5782,-6.5832,0,0,0,0,0,0,-6.5442,-6.5455,-6.5481,-6.5501,-6.5513,-6.5588,-6.5545,-6.5545,-6.5564,-6.556,-6.558,-6.5581,-6.5577,-6.5632,-6.5641,-6.5676,-6.5612,-6.5771,-6.5776,-6.5781,-6.5827,-6.5837,-6.5845,0,0,0,0,0,-6.5438,-6.5492,-6.5483,-6.5493,-6.5546,-6.559,-6.5597,-6.5592,-6.5567,-6.5593,-6.5599,-6.558,-6.5667,-6.5637,-6.5647,-6.5684,-6.5769,-6.5775,-6.578,-6.5823,-6.5835,-6.5845,0,0,0,0,0,0,-6.5474,-6.5494,-6.5484,-6.5547,-6.5567,-6.5585,-6.5617,-6.5604,-6.5631,-6.5626,-6.5618,-6.5623,-6.5678,-6.5686,-6.5653,-6.575,-6.5714,-6.5722,-6.5743,-6.5754,-6.5763,-6.576,-6.5615,0,0,0,0,0,-6.5489,-6.5525,-6.5541,-6.5594,-6.5605,-6.561,-6.5629,-6.5624,-6.5644,-6.5652,-6.5662,-6.5682,-6.5713,-6.5734,-6.5764,-6.5828,-6.5832,-6.5858,-6.5867,-6.5875,-6.5881,-6.5917,-6.5929,-6.5801,-6.5801,-6.5801,0,0,-6.552,-6.5536,-6.5559,-6.5602,-6.5617,-6.5654,-6.5617,-6.5657,-6.5684,-6.5658,-6.5708,-6.5717,-6.5738,-6.5797,-6.5824,-6.5806,-6.5918,-6.5882,-6.5887,-6.589,-6.5924,-6.5936,-6.5947,-6.5805,-6.5804,-6.5804,0,0,-6.5597,-6.5613,-6.566,-6.5677,-6.5702,-6.5705,-6.5716,-6.5736,-6.5741,-6.5793,-6.5774,-6.5806,-6.586,-6.5877,-6.5892,-6.5978,-6.5962,-6.5988,-6.6034,-6.6069,-6.608,-6.6089,-6.612,-6.6131,-6.5994,-6.5994,-6.5995,0,-6.5632,-6.5688,-6.5685,-6.5727,-6.5747,-6.5727,-6.5775,-6.5791,-6.5823,-6.5837,-6.5817,-6.5887,-6.5899,-6.5963,-6.5984,-6.5997,-6.601,-6.5985,-6.6079,-6.6088,-6.6096,-6.6126,-6.6137,-6.5998,-6.5997,-6.5997,-6.5997,0,-6.5731,-6.5771,-6.5805,-6.584,-6.5864,-6.5908,-6.5911,-6.5935,-6.5928,-6.5933,-6.5986,-6.6002,-6.6035,-6.6049,-6.6042,-6.6113,-6.6101,-6.608,-6.6043,-6.6111,-6.6139,-6.615,-6.6002,-6.6001,-6.6,-6.5999,0,0,-6.5829,-6.5864,-6.5877,-6.5893,-6.592,-6.595,-6.5994,-6.6029,-6.605,-6.6073,-6.611,-6.6158,-6.614,-6.6157,-6.6152,-6.6183,-6.6252,-6.6159,-6.6159,-6.6176,-6.6331,-6.6347,-6.636,-6.6241,-6.6243,-6.6245,-6.6329,0,-6.5908,-6.5987,-6.5986,-6.6058,-6.6095,-6.6078,-6.6117,-6.6137,-6.6144,-6.6175,-6.6181,-6.6216,-6.6189,-6.62,-6.623,-6.6237,-6.6283,-6.6231,-6.6275,-6.6276,-6.627,-6.6374,-6.6391,-6.6469,-6.634,-6.6342,-6.6343,0,-6.6009,-6.6039,-6.6116,-6.614,-6.6156,-6.619,-6.6223,-6.6253,-6.6276,-6.6279,-6.63,-6.6291,-6.6335,-6.6298,-6.6359,-6.6324,-6.6342,-6.6349,-6.6352,-6.6356,-6.6314,-6.6381,-6.6494,-6.6506,-6.636,-6.6359,-6.6358,0,-6.6074,-6.6134,-6.6188,-6.6202,-6.6231,-6.6256,-6.6269,-6.6291,-6.6312,-6.634,-6.6354,-6.6386,-6.6404,-6.6429,-6.6428,-6.6401,-6.6491,-6.6453,-6.6494,-6.6494,-6.6513,-6.6512,-6.6631,-6.6525,-6.6524,-6.6524,-6.6524,0,-6.6162,-6.621,-6.6218,-6.6251,-6.6304,-6.6303,-6.6355,-6.6366,-6.6386,-6.642,-6.6407,-6.6439,-6.6437,-6.647,-6.647,-6.6521,-6.6529,-6.6532,-6.6531,-6.6533,-6.6533,-6.6544,-6.6539,-6.6527,-6.6527,-6.6526,-6.6525,0,-6.6243,-6.625,-6.6309,-6.6333,-6.634,-6.6378,-6.6398,-6.643,-6.6436,-6.648,-6.649,-6.6499,-6.6538,-6.654,-6.6583,-6.6583,-6.6646,-6.6639,-6.6639,-6.6637,-6.6678,-6.6675,-6.6809,-6.6827,-6.6709,-6.671,-6.6711,0,-6.6298,-6.6335,-6.6365,-6.6388,-6.6403,-6.644,-6.6463,-6.6464,-6.6488,-6.6519,-6.6546,-6.6584,-6.6614,-6.6675,-6.6685,-6.6719,-6.6713,-6.6758,-6.6717,-6.6719,-6.6714,-6.6712,-6.6716,-6.6765,-6.6767,-6.6768,-6.6768,0,-6.6396,-6.6399,-6.6433,-6.647,-6.6498,-6.6526,-6.6552,-6.6572,-6.6575,-6.6603,-6.6643,-6.6667,-6.6713,-6.675,-6.6783,-6.6795,-6.6783,-6.6781,-6.6793,-6.6795,-6.6794,-6.6796,-6.666,-6.6778,-6.6777,-6.6776,-6.6776,-6.6775,-6.6467,-6.65,-6.6526,-6.6565,-6.6586,-6.6611,-6.6643,-6.6654,-6.6688,-6.6727,-6.6725,-6.6769,-6.6793,-6.6837,-6.6852,-6.6886,-6.6871,-6.6887,-6.6891,-6.6895,-6.69,-6.6789,-6.6892,-6.6892,-6.6892,-6.6891,-6.6891,0,-6.6565,-6.6582,-6.6618,-6.6656,-6.6687,-6.6675,-6.6704,-6.673,-6.6771,-6.6794,-6.6825,-6.6872,-6.6909,-6.6923,-6.6959,-6.6984,-6.6979,-6.6993,-6.6991,-6.6994,-6.6911,-6.6898,-6.6996,-6.6996,-6.6996,-6.6996,-6.6996,-6.6996,-6.6619,-6.6675,-6.6681,-6.6746,-6.6762,-6.6808,-6.6826,-6.6849,-6.6868,-6.6922,-6.6954,-6.6963,-6.6983,-6.7021,-6.7054,-6.7057,-6.7071,-6.7088,-6.7088,-6.701,-6.7,-6.699,-6.6977,-6.7091,-6.7091,-6.7169,-6.7169,-6.717]}]]